Flag for Canada Weather past 2 weeks in Camrose, Alberta, Canada

Now
23 °F

Ice fog.


Feels Like: 12 °F
Forecast: 10 / 23 °F
Wind: 10 mph from Northeast

Location: Edmonton International

Current Time: Jan 30, 2015 at 11:59:43 AM

Latest Report: Jan 30, 2015 at 11:00 AM


Visibility: 4 mi

Pressure: 30.39 "Hg

Humidity: 93%

Dew point: 21 °F

Location of CamroseLocation

Historic Weather in Camrose — Graph

°F

Camrose temperature yesterday

Maximum temperature yesterday: 27 °F (at 2:00 PM)
Minimum temperature yesterday: 18 °F (at 8:00 PM)
Average temperature yesterday: 22 °F

Past Weeks' High & Low Weather Summary

 TemperatureHumidityPressure
High48 °F (Jan 22, 2:00 PM)100% (Jan 15, 6:00 PM)30.50 "Hg (Jan 15, 6:00 PM)
Low9 °F (Jan 18, 3:00 AM)43% (Jan 25, 5:00 PM)29.49 "Hg (Jan 16, 8:00 AM)
Average29 °F77%29.97 "Hg
* Reported Jan 15 11:00 AM — Jan 30 11:00 AM, Camrose, Weather by CustomWeather, © 2014

Note: Actual official high and low records may vary slightly from our data, if they occured in-between our weather recording intervals... More about our weather records

Advertising

Camrose weather history for previous 24 hours

 ConditionsComfort  
Time TempWeatherWind HumidityBarometerVisibility
11:00 AM
Jan 30
23 °FIce fog.10 mph93%30.39 "Hg4 mi
10:00 AM23 °FMostly cloudy.7 mph80%30.39 "Hg10 mi
9:00 AM19 °FScattered clouds.5 mph79%30.37 "Hg12 mi
8:00 AM21 °FPassing clouds.5 mph80%30.36 "Hg15 mi
7:00 AM23 °FPassing clouds.9 mph74%30.35 "Hg15 mi
6:00 AM23 °FPassing clouds.5 mph74%30.34 "Hg15 mi
5:00 AM19 °FPassing clouds.3 mph86%30.34 "Hg15 mi
4:00 AM21 °FPassing clouds.2 mph80%30.32 "Hg15 mi
3:00 AM19 °FPassing clouds.3 mph86%30.32 "Hg12 mi
2:00 AM19 °FPassing clouds.3 mph86%30.31 "Hg12 mi
1:00 AM19 °FPassing clouds.5 mph86%30.30 "Hg10 mi
12:00 AM23 °FPassing clouds.3 mph86%30.29 "Hg10 mi
11:00 PM
Jan 29
21 °FPassing clouds.5 mph86%30.29 "Hg8 mi
10:00 PM21 °FPartly cloudy.7 mph93%30.29 "Hg8 mi
9:00 PM19 °FPassing clouds.7 mph93%30.30 "Hg8 mi
8:00 PM18 °FIce fog.6 mph93%30.29 "Hg6 mi
7:00 PM21 °FIce fog.8 mph93%30.29 "Hg6 mi
6:00 PM21 °FIce fog.6 mph93%30.29 "Hg4 mi
5:00 PM23 °FIce fog.6 mph93%30.29 "Hg3 mi
4:00 PM27 °FIce fog.6 mph93%30.29 "Hg3 mi
3:00 PM27 °FIce fog.6 mph93%30.29 "Hg2 mi
2:00 PM27 °FIce fog.8 mph93%30.30 "Hg2 mi
1:00 PM25 °FIce fog.12 mph100%30.31 "Hg2 mi
12:00 PM25 °FIce fog.10 mph93%30.35 "Hg2 mi
11:00 AM25 °FIce fog.12 mph93%30.35 "Hg2 mi
Weather by CustomWeather, © 2014

See weather overviewHow to use our weather pages